San Angelo, TX

2:09 AM CDT on July 25, 2017 (GMT -0500)
San Angelo Regional-Mathis

Weather History for KSJT - November, 2014

Change the Weather History Date:

Tuesday, November 25, 2014

  Actual Average Record
Temperature  
Mean Temperature 46 °F 52 °F  
Max Temperature 63 °F 65 °F 90 °F (1965)
Min Temperature 28 °F 38 °F 19 °F (1996)
Degree Days  
Heating Degree Days 19 14  
Month to date heating degree days 314 236  
Since 1 July heating degree days 335 327  
Cooling Degree Days 0 0  
Month to date cooling degree days 10 15  
Year to date cooling degree days 2872 2499  
Moisture  
Dew Point 24 °F    
Average Humidity 51    
Maximum Humidity 85    
Minimum Humidity 17    
Precipitation  
Precipitation 0.00 in 0.02 in 0.52 in (1986)
Month to date precipitation 3.04 1.00  
Year to date precipitation 16.35 20.26  
Snow  
Snow 0.00 in 0.00 in T in (2007)
Month to date snowfall T 0.2  
Since 1 July snowfall T 0.2  
Snow Depth 0.00 in    
Sea Level Pressure  
Sea Level Pressure 30.26 in    
Wind  
Wind Speed 7 mph (WSW)    
Max Wind Speed 21 mph    
Max Gust Speed 24 mph    
Visibility 10 miles    
Events      
T = Trace of Precipitation, MM = Missing Value Source: NWS Daily Summary

Daily Weather History Graph

Daily Weather History Graph

Search for Another Location

Airport or City:

Trip Planner

Search our weather history database for the weather conditions in past years. The results will help you decide how hot, cold, wet, or windy it might be!

Date:

Astronomy

Nov. 25, 2014 Rise Set
Actual Time 7:18 AM CST 5:39 PM CST
Civil Twilight 6:52 AM CST 6:05 PM CST
Nautical Twilight 6:22 AM CST 6:35 PM CST
Astronomical Twilight 5:53 AM CST 7:04 PM CST
Moon 10:07 AM CST 9:03 PM CST
Length of Visible Light 11h 13m
Length of Day
10h 21m
Waxing Crescent, 13% of the Moon is Illuminated
Nov 25
Waxing Crescent
Nov 29
First Quarter
Dec 6
Full
Dec 14
Last Quarter
Dec 21
New

Hourly Weather History & Observations

Time (CST) Temp. Windchill Dew Point Humidity Pressure Visibility Wind Dir Wind Speed Gust Speed Precip Events Conditions
12:51 AM 36.0 °F 33.3 °F 26.1 °F 67% 30.19 in 10.0 mi West 3.5 mph - N/A   Clear
1:51 AM 32.0 °F 27.5 °F 26.1 °F 79% 30.20 in 10.0 mi WSW 4.6 mph - N/A   Clear
2:51 AM 33.1 °F 28.7 °F 28.0 °F 82% 30.22 in 10.0 mi West 4.6 mph - N/A   Clear
3:51 AM 33.1 °F 26.1 °F 28.0 °F 82% 30.24 in 10.0 mi West 8.1 mph - N/A   Clear
4:51 AM 32.0 °F 27.5 °F 28.0 °F 85% 30.26 in 10.0 mi West 4.6 mph - N/A   Clear
5:51 AM 30.9 °F 26.2 °F 26.1 °F 82% 30.30 in 10.0 mi West 4.6 mph - N/A   Clear
6:51 AM 28.9 °F 21.9 °F 25.0 °F 85% 30.34 in 10.0 mi SW 6.9 mph - N/A   Clear
7:51 AM 30.9 °F 22.8 °F 26.1 °F 82% 30.38 in 10.0 mi NW 9.2 mph - N/A   Clear
8:51 AM 37.9 °F - 30.0 °F 73% 30.39 in 10.0 mi Calm Calm - N/A   Clear
9:51 AM 48.0 °F - 28.9 °F 48% 30.39 in 10.0 mi NNW 4.6 mph - N/A   Clear
10:51 AM 51.1 °F - 26.1 °F 38% 30.40 in 10.0 mi NNW 4.6 mph - N/A   Clear
11:51 AM 55.9 °F - 26.1 °F 32% 30.36 in 10.0 mi North 4.6 mph - N/A   Clear
12:51 PM 57.9 °F - 25.0 °F 28% 30.32 in 10.0 mi Calm Calm - N/A   Clear
1:51 PM 60.1 °F - 24.1 °F 25% 30.27 in 10.0 mi West 8.1 mph - N/A   Clear
2:51 PM 62.1 °F - 19.9 °F 20% 30.23 in 10.0 mi West 17.3 mph 23.0 mph N/A   Clear
3:51 PM 62.1 °F - 18.0 °F 18% 30.22 in 10.0 mi West 15.0 mph 20.7 mph N/A   Clear
4:51 PM 60.1 °F - 16.0 °F 18% 30.20 in 10.0 mi West 12.7 mph - N/A   Clear
5:51 PM 54.0 °F - 17.1 °F 23% 30.20 in 10.0 mi WSW 6.9 mph - N/A   Clear
6:51 PM 46.9 °F - 19.0 °F 33% 30.23 in 10.0 mi WSW 9.2 mph - N/A   Clear
7:51 PM 44.1 °F 39.0 °F 21.0 °F 40% 30.22 in 10.0 mi SW 9.2 mph - N/A   Clear
8:51 PM 44.1 °F 39.0 °F 19.9 °F 38% 30.18 in 10.0 mi SSW 9.2 mph - N/A   Clear
9:51 PM 41.0 °F 35.2 °F 21.0 °F 45% 30.17 in 10.0 mi SSW 9.2 mph - N/A   Clear
10:51 PM 37.0 °F 31.6 °F 21.9 °F 54% 30.17 in 10.0 mi SSW 6.9 mph - N/A   Clear
11:51 PM 37.0 °F 29.3 °F 21.9 °F 54% 30.16 in 10.0 mi SSW 11.5 mph - N/A   Clear